Hourly Data Report for November 14, 2019

All times are specified in Local Standard Time (LST). Add 1 hour to adjust for Daylight Saving Time where and when it is observed.

SATURNA ISLAND CS
BRITISH COLUMBIA
Current Station Operator: ECCC - MSC

48°47'02.067" N
123°02'41.082" W
24.40 m
1017101
71473
WEZ

Download Data

Hourly Data (November 2019)
Hourly Data Report for November 14, 2019
TIME Temp Definition
°C
Dew Point Definition
°C
Rel Hum Definition
%
Wind Dir Definition
10's deg

Wind Spd Definition
km/h
Visibility Definition
km
Stn Press Definition
kPa
Hmdx Definition


Wind Chill Definition


Weather Definition


00:00 8.5 8.1 97 31 5   101.45     LegendNANA
01:00 8.6 8.2 97 33 9   101.43     LegendNANA
02:00 8.8 8.4 97 35 10   101.39     LegendNANA
03:00 8.6 8.2 97 33 9   101.38     LegendNANA
04:00 8.5 7.7 94 2 16   101.36     LegendNANA
05:00 8.6 6.8 89 3 19   101.34     LegendNANA
06:00 8.4 6.4 87 4 15   101.32     LegendNANA
07:00 8.4 6.4 87 2 11   101.32     LegendNANA
08:00 8.3 6.2 86 12 6   101.34     LegendNANA
09:00 9.0 6.0 81 13 5   101.35     LegendNANA
10:00 9.2 6.2 82 7 8   101.35     LegendNANA
11:00 11.0 6.2 72 6 10   101.32     LegendNANA
12:00 10.0 6.2 77 36 6   101.26     LegendNANA
13:00 9.7 6.7 81 33 7   101.19     LegendNANA
14:00 10.0 7.0 82 17 4   101.14     LegendNANA
15:00 10.0 6.8 81   0   101.12     LegendNANA
16:00 9.3 7.4 88 31 6   101.14     LegendNANA
17:00 9.0 7.7 92 33 8   101.11     LegendNANA
18:00 8.9 7.6 92 34 4   101.12     LegendNANA
19:00 8.8 7.4 91 3 3   101.07     LegendNANA
20:00 8.8 7.4 91 2 5   101.02     LegendNANA
21:00 9.0 7.2 89 20 2   101.03     LegendNANA
22:00 9.1 7.5 90 8 6   100.98     LegendNANA
23:00 9.1 7.7 91 8 5   100.95     LegendNANA

Notes on Data Quality.

Legend

  • E = Estimated
  • M = Missing
  • NA = Not Available
Date modified: